Weather History for Jackson, MS

Change the Weather History Date:

Wednesday, January 29, 2014

  Actual Average Record
Temperature  
Mean Temperature 26 °F 46 °F  
Max Temperature 35 °F 57 °F 81 °F (1917)
Min Temperature 16 °F 36 °F 9 °F (1966)
Degree Days  
Heating Degree Days 39 19  
Month to date heating degree days 707 570  
Since 1 July heating degree days 1729 1520  
Cooling Degree Days 0 0  
Month to date cooling degree days 0 0  
Year to date cooling degree days 0 0  
Moisture  
Dew Point 4 °F    
Average Humidity 51    
Maximum Humidity 74    
Minimum Humidity 28    
Precipitation  
Precipitation 0.00 in 0.18 in 2.23 in (1999)
Month to date precipitation 1.61 4.60  
Year to date precipitation 1.61 4.60  
Sea Level Pressure  
Sea Level Pressure 30.42 in    
Wind  
Wind Speed 4 mph (NE)    
Max Wind Speed 17 mph    
Max Gust Speed 23 mph    
Visibility 10 miles    
Events      
T = Trace of Precipitation, MM = Missing Value Source: NWS Daily Summary

Daily Weather History Graph

Daily Weather History Graph

Search for Another Location

Airport:

Trip Planner

Search our weather history database for the weather conditions in past years. The results will help you decide how hot, cold, wet, or windy it might be!

Date:

Astronomy

Jan. 29, 2014 Rise Set
Actual Time 6:56 AM CST 5:31 PM CST
Civil Twilight 6:30 AM CST 5:56 PM CST
Nautical Twilight 6:00 AM CST 6:26 PM CST
Astronomical Twilight 5:31 AM CST 6:55 PM CST
Moon 5:32 AM CST (1/29) 4:30 PM CST (1/29)
Length of Visible Light 11h 26m
Length of Day
10h 34m
Waning Crescent, 2% of the Moon is Illuminated
Jan 29
Waning Crescent
Jan 30
New
Feb 6
First Quarter
Feb 14
Full
Feb 22
Last Quarter

Hourly Weather History & Observations

Time (CST) Temp. Windchill Dew Point Humidity Pressure Visibility Wind Dir Wind Speed Gust Speed Precip Events Conditions
12:54 AM 21.9 °F 11.0 °F 3.0 °F 44% 30.43 in 10.0 mi North 10.4 mph 20.7 mph N/A   Clear
1:54 AM 21.0 °F 10.6 °F 1.9 °F 44% 30.42 in 10.0 mi NE 9.2 mph - N/A   Clear
2:54 AM 19.9 °F 11.1 °F 1.9 °F 46% 30.42 in 10.0 mi NE 6.9 mph - N/A   Clear
3:54 AM 19.0 °F 12.3 °F 1.9 °F 47% 30.42 in 10.0 mi NE 4.6 mph - N/A   Clear
4:54 AM 19.0 °F 11.1 °F 1.9 °F 47% 30.42 in 10.0 mi NE 5.8 mph - N/A   Clear
5:54 AM 18.0 °F 8.7 °F -0.0 °F 45% 30.43 in 10.0 mi North 6.9 mph - N/A   Clear
6:54 AM 19.0 °F 12.3 °F -0.9 °F 42% 30.45 in 10.0 mi NE 4.6 mph - N/A   Mostly Cloudy
7:54 AM 19.0 °F 10.0 °F -0.0 °F 43% 30.47 in 10.0 mi NNE 6.9 mph - N/A   Mostly Cloudy
8:54 AM 21.0 °F 13.4 °F -0.9 °F 38% 30.49 in 10.0 mi NE 5.8 mph - N/A   Mostly Cloudy
9:54 AM 24.1 °F 16.0 °F 1.0 °F 37% 30.49 in 10.0 mi NE 6.9 mph - N/A   Mostly Cloudy
10:54 AM 26.1 °F 17.6 °F 1.0 °F 34% 30.49 in 10.0 mi East 8.1 mph - N/A   Mostly Cloudy
11:54 AM 28.0 °F 21.7 °F 3.0 °F 34% 30.48 in 10.0 mi NNE 5.8 mph - N/A   Mostly Cloudy
12:54 PM 30.0 °F 25.2 °F 3.9 °F 33% 30.44 in 10.0 mi NE 4.6 mph - N/A   Mostly Cloudy
1:54 PM 30.9 °F 25.2 °F 3.0 °F 31% 30.43 in 10.0 mi ENE 5.8 mph - N/A   Mostly Cloudy
2:54 PM 34.0 °F 28.0 °F 3.0 °F 27% 30.40 in 10.0 mi NNE 6.9 mph - N/A   Mostly Cloudy
3:54 PM 34.0 °F 31.0 °F 3.0 °F 27% 30.39 in 10.0 mi East 3.5 mph - N/A   Mostly Cloudy
4:54 PM 32.0 °F - 5.0 °F 32% 30.40 in 10.0 mi Calm Calm - N/A   Mostly Cloudy
5:54 PM 27.0 °F 23.0 °F 9.0 °F 47% 30.39 in 10.0 mi SSE 3.5 mph - N/A   Mostly Cloudy
6:54 PM 25.0 °F - 10.0 °F 53% 30.39 in 10.0 mi Calm Calm - N/A   Scattered Clouds
7:54 PM 19.9 °F - 12.0 °F 71% 30.39 in 10.0 mi Calm Calm - N/A   Clear
8:54 PM 19.9 °F - 10.0 °F 65% 30.37 in 10.0 mi Calm Calm - N/A   Partly Cloudy
9:54 PM 18.0 °F - 10.0 °F 71% 30.36 in 10.0 mi Calm Calm - N/A   Partly Cloudy
10:54 PM 17.1 °F - 9.0 °F 71% 30.37 in 10.0 mi Calm Calm - N/A   Partly Cloudy
11:54 PM 17.1 °F - 9.0 °F 71% 30.35 in 10.0 mi Calm Calm - N/A   Clear